Change the Weather History Date:

Sunday, November 30, 2014

  Actual Average Record
Temperature  
Mean Temperature 30 °F 34 °F  
Max Temperature 41 °F 50 °F 76 °F (1970)
Min Temperature 18 °F 18 °F -4 °F (1952)
Degree Days  
Heating Degree Days 35 31  
Month to date heating degree days 834 748  
Since 1 July heating degree days 1160 1216  
Cooling Degree Days 0 0  
Month to date cooling degree days 0 0  
Year to date cooling degree days 1322 1121  
Moisture  
Dew Point 12 °F    
Average Humidity 52    
Maximum Humidity 69    
Minimum Humidity 35    
Precipitation  
Precipitation 0.00 in 0.00 in 0.27 in (1986)
Month to date precipitation 0.15 0.38  
Year to date precipitation 11.69 14.80  
Sea Level Pressure  
Sea Level Pressure 30.07 in    
Wind  
Wind Speed 11 mph (NE)    
Max Wind Speed 21 mph    
Max Gust Speed 25 mph    
Visibility 9 miles    
Events      
T = Trace of Precipitation, MM = Missing Value Source: NWS Daily Summary

Daily Weather History Graph

Daily Weather History Graph

Search for Another Location

Airport or City:

Trip Planner

Search our weather history database for the weather conditions in past years. The results will help you decide how hot, cold, wet, or windy it might be!

Date:

Astronomy

Nov. 30, 2014 Rise Set
Actual Time 6:47 AM MST 4:31 PM MST
Civil Twilight 6:18 AM MST 5:00 PM MST
Nautical Twilight 5:45 AM MST 5:33 PM MST
Astronomical Twilight 5:13 AM MST 6:04 PM MST
Moon 12:57 PM MST (11/30) 12:25 AM MST (11/30)
Length of Visible Light 10h 42m
Length of Day
9h 44m
Waxing Gibbous, 65% of the Moon is Illuminated
Nov 30
Waxing Gibbous
Dec 6
Full
Dec 14
Last Quarter
Dec 21
New
Dec 28
First Quarter

Hourly Weather History & Observations

Time (MST) Temp. Windchill Dew Point Humidity Pressure Visibility Wind Dir Wind Speed Gust Speed Precip Events Conditions
12:53 AM 37.0 °F 30.4 °F 12.0 °F 36% 29.61 in 10.0 mi SSW 9.2 mph - N/A   Clear
1:53 AM 37.9 °F 35.5 °F 12.0 °F 35% 29.64 in 10.0 mi North 3.5 mph - N/A   Clear
2:53 AM 30.0 °F 26.5 °F 12.9 °F 49% 29.66 in 10.0 mi Variable 3.5 mph - N/A   Clear
3:53 AM 35.1 °F - 14.0 °F 42% 29.67 in 10.0 mi Calm Calm - N/A   Clear
4:53 AM 28.9 °F 23.9 °F 15.1 °F 56% 29.74 in 10.0 mi SW 4.6 mph - N/A   Clear
5:53 AM 30.9 °F 21.2 °F 15.1 °F 52% 29.78 in 10.0 mi SSW 12.7 mph - N/A   Clear
6:53 AM 30.0 °F 20.5 °F 14.0 °F 51% 29.80 in 10.0 mi SSW 11.5 mph - N/A   Clear
7:53 AM 36.0 °F 26.3 °F 15.1 °F 43% 29.86 in 10.0 mi East 16.1 mph - N/A   Clear
8:53 AM 32.0 °F 20.5 °F 18.0 °F 56% 29.94 in 7.0 mi East 18.4 mph - N/A   Clear
9:53 AM 30.0 °F 19.5 °F 18.0 °F 61% 30.01 in 5.0 mi East 13.8 mph 24.2 mph N/A   Haze
10:53 AM 28.9 °F 17.3 °F 19.0 °F 67% 30.05 in 6.0 mi East 16.1 mph - N/A   Haze
11:53 AM 30.0 °F 18.7 °F 18.0 °F 61% 30.05 in 8.0 mi ENE 16.1 mph 23.0 mph N/A   Clear
12:53 PM 30.0 °F 18.7 °F 17.1 °F 59% 30.04 in 8.0 mi ENE 16.1 mph - N/A   Clear
1:53 PM 30.0 °F 18.7 °F 15.1 °F 54% 30.08 in 9.0 mi ENE 16.1 mph - N/A   Clear
2:53 PM 28.0 °F 16.1 °F 10.9 °F 49% 30.14 in 9.0 mi NE 16.1 mph - N/A   Clear
3:53 PM 24.1 °F 11.0 °F 5.0 °F 44% 30.19 in 10.0 mi NE 16.1 mph - N/A   Clear
4:53 PM 21.9 °F 9.8 °F 7.0 °F 53% 30.26 in 10.0 mi NE 12.7 mph - N/A   Clear
5:53 PM 21.9 °F 13.4 °F 8.1 °F 55% 30.31 in 10.0 mi NE 6.9 mph - N/A   Clear
6:53 PM 21.9 °F 12.5 °F 9.0 °F 58% 30.37 in 10.0 mi NE 8.1 mph - N/A   Clear
7:53 PM 21.0 °F 10.6 °F 8.1 °F 57% 30.39 in 10.0 mi NE 9.2 mph - N/A   Clear
8:53 PM 19.0 °F 11.1 °F 8.1 °F 62% 30.45 in 10.0 mi North 5.8 mph - N/A   Clear
9:53 PM 21.0 °F 9.9 °F 8.1 °F 57% 30.49 in 10.0 mi North 10.4 mph - N/A   Clear
10:53 PM 19.9 °F 10.1 °F 7.0 °F 57% 30.53 in 10.0 mi NNW 8.1 mph - N/A   Clear
11:53 PM 19.9 °F 9.3 °F 7.0 °F 57% 30.54 in 10.0 mi North 9.2 mph - N/A   Clear